<?xml version="1.0" encoding="UTF-8" standalone="no" ?>
<gpx xmlns="http://www.topografix.com/GPX/1/1" xmlns:xsi="http://www.w3.org/2001/XMLSchema-instance" xsi:schemaLocation="http://www.topografix.com/GPX/1/1 http://www.topografix.com/GPX/1/1/gpx.xsd" version="1.1" creator="VisuGPX - https://www.visugpx.com">
  <metadata>
    <name>Calanques Maxime </name>
    <desc><![CDATA[Sortie OVS du 4/4/2011. GO Maxime]]></desc>
  </metadata>
  <trk>
    <name><![CDATA[Calanques Maxime _1]]></name>
    <trkseg>
      <trkpt lat="43.22749" lon="5.43719">
        <ele>166</ele>
        <time>2011-04-04T07:14:32Z</time>
      </trkpt>
      <trkpt lat="43.22691" lon="5.43751">
        <ele>166</ele>
        <time>2011-04-04T07:14:32Z</time>
      </trkpt>
      <trkpt lat="43.22651" lon="5.43784">
        <ele>168</ele>
        <time>2011-04-04T07:14:32Z</time>
      </trkpt>
      <trkpt lat="43.22604" lon="5.43804">
        <ele>168</ele>
        <time>2011-04-04T07:14:32Z</time>
      </trkpt>
      <trkpt lat="43.22554" lon="5.43809">
        <ele>171</ele>
        <time>2011-04-04T07:14:32Z</time>
      </trkpt>
      <trkpt lat="43.22506" lon="5.4381">
        <ele>171</ele>
        <time>2011-04-04T07:14:32Z</time>
      </trkpt>
      <trkpt lat="43.22459" lon="5.43808">
        <ele>172</ele>
        <time>2011-04-04T07:14:32Z</time>
      </trkpt>
      <trkpt lat="43.22422" lon="5.43842">
        <ele>169</ele>
        <time>2011-04-04T07:14:32Z</time>
      </trkpt>
      <trkpt lat="43.22379" lon="5.43863">
        <ele>172</ele>
        <time>2011-04-04T07:14:32Z</time>
      </trkpt>
      <trkpt lat="43.22341" lon="5.43904">
        <ele>174</ele>
        <time>2011-04-04T07:14:32Z</time>
      </trkpt>
      <trkpt lat="43.22305" lon="5.43949">
        <ele>178</ele>
        <time>2011-04-04T07:14:32Z</time>
      </trkpt>
      <trkpt lat="43.22264" lon="5.43977">
        <ele>179</ele>
        <time>2011-04-04T07:14:32Z</time>
      </trkpt>
      <trkpt lat="43.2222" lon="5.43997">
        <ele>180</ele>
        <time>2011-04-04T07:14:32Z</time>
      </trkpt>
      <trkpt lat="43.22174" lon="5.44016">
        <ele>181</ele>
        <time>2011-04-04T07:14:32Z</time>
      </trkpt>
      <trkpt lat="43.22136" lon="5.4405">
        <ele>182</ele>
        <time>2011-04-04T07:14:32Z</time>
      </trkpt>
      <trkpt lat="43.22098" lon="5.44083">
        <ele>182</ele>
        <time>2011-04-04T07:14:32Z</time>
      </trkpt>
      <trkpt lat="43.22067" lon="5.4413">
        <ele>182</ele>
        <time>2011-04-04T07:14:32Z</time>
      </trkpt>
      <trkpt lat="43.22049" lon="5.44192">
        <ele>188</ele>
        <time>2011-04-04T07:14:32Z</time>
      </trkpt>
      <trkpt lat="43.22033" lon="5.44184">
        <ele>187</ele>
        <time>2011-04-04T07:14:32Z</time>
      </trkpt>
      <trkpt lat="43.22002" lon="5.44132">
        <ele>180</ele>
        <time>2011-04-04T07:14:32Z</time>
      </trkpt>
      <trkpt lat="43.21978" lon="5.44132">
        <ele>170</ele>
        <time>2011-04-04T07:14:32Z</time>
      </trkpt>
      <trkpt lat="43.21945" lon="5.44173">
        <ele>176</ele>
        <time>2011-04-04T07:14:32Z</time>
      </trkpt>
      <trkpt lat="43.21905" lon="5.44192">
        <ele>171</ele>
        <time>2011-04-04T07:14:32Z</time>
      </trkpt>
      <trkpt lat="43.21876" lon="5.44166">
        <ele>155</ele>
        <time>2011-04-04T07:14:32Z</time>
      </trkpt>
      <trkpt lat="43.21849" lon="5.44131">
        <ele>150</ele>
        <time>2011-04-04T07:14:32Z</time>
      </trkpt>
      <trkpt lat="43.21806" lon="5.44152">
        <ele>151</ele>
        <time>2011-04-04T07:14:32Z</time>
      </trkpt>
      <trkpt lat="43.21775" lon="5.44103">
        <ele>143</ele>
        <time>2011-04-04T07:14:32Z</time>
      </trkpt>
      <trkpt lat="43.21731" lon="5.44098">
        <ele>143</ele>
        <time>2011-04-04T07:14:32Z</time>
      </trkpt>
      <trkpt lat="43.21693" lon="5.44097">
        <ele>145</ele>
        <time>2011-04-04T07:14:32Z</time>
      </trkpt>
      <trkpt lat="43.21656" lon="5.44061">
        <ele>124</ele>
        <time>2011-04-04T07:14:32Z</time>
      </trkpt>
      <trkpt lat="43.21618" lon="5.44079">
        <ele>116</ele>
        <time>2011-04-04T07:14:32Z</time>
      </trkpt>
      <trkpt lat="43.21604" lon="5.44138">
        <ele>129</ele>
        <time>2011-04-04T07:14:32Z</time>
      </trkpt>
      <trkpt lat="43.21572" lon="5.44185">
        <ele>113</ele>
        <time>2011-04-04T07:14:32Z</time>
      </trkpt>
      <trkpt lat="43.21534" lon="5.44213">
        <ele>102</ele>
        <time>2011-04-04T07:14:32Z</time>
      </trkpt>
      <trkpt lat="43.21532" lon="5.44256">
        <ele>106</ele>
        <time>2011-04-04T07:14:32Z</time>
      </trkpt>
      <trkpt lat="43.21528" lon="5.44295">
        <ele>108</ele>
        <time>2011-04-04T07:14:32Z</time>
      </trkpt>
      <trkpt lat="43.21497" lon="5.4434">
        <ele>84</ele>
        <time>2011-04-04T07:14:32Z</time>
      </trkpt>
      <trkpt lat="43.21469" lon="5.44379">
        <ele>81</ele>
        <time>2011-04-04T07:14:32Z</time>
      </trkpt>
      <trkpt lat="43.21445" lon="5.44408">
        <ele>77</ele>
        <time>2011-04-04T07:14:32Z</time>
      </trkpt>
      <trkpt lat="43.2141" lon="5.44448">
        <ele>69</ele>
        <time>2011-04-04T07:14:32Z</time>
      </trkpt>
      <trkpt lat="43.2137" lon="5.44473">
        <ele>64</ele>
        <time>2011-04-04T07:14:32Z</time>
      </trkpt>
      <trkpt lat="43.21329" lon="5.44489">
        <ele>43</ele>
        <time>2011-04-04T07:14:32Z</time>
      </trkpt>
      <trkpt lat="43.21333" lon="5.44516">
        <ele>51</ele>
        <time>2011-04-04T07:14:32Z</time>
      </trkpt>
      <trkpt lat="43.21309" lon="5.44572">
        <ele>57</ele>
        <time>2011-04-04T07:14:32Z</time>
      </trkpt>
      <trkpt lat="43.21276" lon="5.44588">
        <ele>59</ele>
        <time>2011-04-04T07:14:32Z</time>
      </trkpt>
      <trkpt lat="43.21294" lon="5.44543">
        <ele>44</ele>
        <time>2011-04-04T07:14:32Z</time>
      </trkpt>
      <trkpt lat="43.21288" lon="5.44493">
        <ele>25</ele>
        <time>2011-04-04T07:14:32Z</time>
      </trkpt>
      <trkpt lat="43.21276" lon="5.44446">
        <ele>20</ele>
        <time>2011-04-04T07:14:32Z</time>
      </trkpt>
      <trkpt lat="43.21298" lon="5.44392">
        <ele>17</ele>
        <time>2011-04-04T07:14:32Z</time>
      </trkpt>
      <trkpt lat="43.213" lon="5.44335">
        <ele>16</ele>
        <time>2011-04-04T07:14:32Z</time>
      </trkpt>
      <trkpt lat="43.21261" lon="5.44339">
        <ele>12</ele>
        <time>2011-04-04T07:14:32Z</time>
      </trkpt>
      <trkpt lat="43.21229" lon="5.44385">
        <ele>18</ele>
        <time>2011-04-04T07:14:32Z</time>
      </trkpt>
      <trkpt lat="43.21195" lon="5.44425">
        <ele>16</ele>
        <time>2011-04-04T07:14:32Z</time>
      </trkpt>
      <trkpt lat="43.21157" lon="5.4441">
        <ele>38</ele>
        <time>2011-04-04T07:14:32Z</time>
      </trkpt>
      <trkpt lat="43.21129" lon="5.44434">
        <ele>36</ele>
        <time>2011-04-04T07:14:32Z</time>
      </trkpt>
      <trkpt lat="43.21113" lon="5.44486">
        <ele>33</ele>
        <time>2011-04-04T07:14:32Z</time>
      </trkpt>
      <trkpt lat="43.21078" lon="5.44532">
        <ele>36</ele>
        <time>2011-04-04T07:14:32Z</time>
      </trkpt>
      <trkpt lat="43.21039" lon="5.44563">
        <ele>34</ele>
        <time>2011-04-04T07:14:32Z</time>
      </trkpt>
      <trkpt lat="43.20998" lon="5.44582">
        <ele>29</ele>
        <time>2011-04-04T07:14:32Z</time>
      </trkpt>
      <trkpt lat="43.20963" lon="5.44612">
        <ele>26</ele>
        <time>2011-04-04T07:14:32Z</time>
      </trkpt>
      <trkpt lat="43.20916" lon="5.44639">
        <ele>28</ele>
        <time>2011-04-04T07:14:32Z</time>
      </trkpt>
      <trkpt lat="43.20872" lon="5.4463">
        <ele>31</ele>
        <time>2011-04-04T07:14:32Z</time>
      </trkpt>
      <trkpt lat="43.20831" lon="5.44626">
        <ele>33</ele>
        <time>2011-04-04T07:14:32Z</time>
      </trkpt>
      <trkpt lat="43.2079" lon="5.44603">
        <ele>36</ele>
        <time>2011-04-04T07:14:32Z</time>
      </trkpt>
      <trkpt lat="43.20767" lon="5.44609">
        <ele>37</ele>
        <time>2011-04-04T07:14:32Z</time>
      </trkpt>
      <trkpt lat="43.20744" lon="5.44598">
        <ele>51</ele>
        <time>2011-04-04T07:14:32Z</time>
      </trkpt>
      <trkpt lat="43.2071" lon="5.44614">
        <ele>58</ele>
        <time>2011-04-04T07:14:32Z</time>
      </trkpt>
      <trkpt lat="43.20676" lon="5.44611">
        <ele>68</ele>
        <time>2011-04-04T07:14:32Z</time>
      </trkpt>
      <trkpt lat="43.20644" lon="5.4459">
        <ele>74</ele>
        <time>2011-04-04T07:14:32Z</time>
      </trkpt>
      <trkpt lat="43.20643" lon="5.44631">
        <ele>69</ele>
        <time>2011-04-04T07:14:32Z</time>
      </trkpt>
      <trkpt lat="43.20647" lon="5.44694">
        <ele>60</ele>
        <time>2011-04-04T07:14:32Z</time>
      </trkpt>
      <trkpt lat="43.20622" lon="5.44756">
        <ele>55</ele>
        <time>2011-04-04T07:14:32Z</time>
      </trkpt>
      <trkpt lat="43.20582" lon="5.44782">
        <ele>71</ele>
        <time>2011-04-04T07:14:32Z</time>
      </trkpt>
      <trkpt lat="43.20538" lon="5.44802">
        <ele>73</ele>
        <time>2011-04-04T07:14:32Z</time>
      </trkpt>
      <trkpt lat="43.20494" lon="5.4481">
        <ele>66</ele>
        <time>2011-04-04T07:14:32Z</time>
      </trkpt>
      <trkpt lat="43.20473" lon="5.44865">
        <ele>75</ele>
        <time>2011-04-04T07:14:32Z</time>
      </trkpt>
      <trkpt lat="43.20471" lon="5.44932">
        <ele>72</ele>
        <time>2011-04-04T07:14:32Z</time>
      </trkpt>
      <trkpt lat="43.20452" lon="5.44987">
        <ele>66</ele>
        <time>2011-04-04T07:14:32Z</time>
      </trkpt>
      <trkpt lat="43.20424" lon="5.45039">
        <ele>58</ele>
        <time>2011-04-04T07:14:32Z</time>
      </trkpt>
      <trkpt lat="43.20399" lon="5.45089">
        <ele>51</ele>
        <time>2011-04-04T07:14:32Z</time>
      </trkpt>
      <trkpt lat="43.20376" lon="5.45136">
        <ele>48</ele>
        <time>2011-04-04T07:14:32Z</time>
      </trkpt>
      <trkpt lat="43.20344" lon="5.45178">
        <ele>45</ele>
        <time>2011-04-04T07:14:32Z</time>
      </trkpt>
      <trkpt lat="43.20321" lon="5.45221">
        <ele>37</ele>
        <time>2011-04-04T07:14:32Z</time>
      </trkpt>
      <trkpt lat="43.20284" lon="5.4525">
        <ele>33</ele>
        <time>2011-04-04T07:14:32Z</time>
      </trkpt>
      <trkpt lat="43.20243" lon="5.45245">
        <ele>23</ele>
        <time>2011-04-04T07:14:32Z</time>
      </trkpt>
      <trkpt lat="43.20208" lon="5.45218">
        <ele>16</ele>
        <time>2011-04-04T07:14:32Z</time>
      </trkpt>
      <trkpt lat="43.20178" lon="5.45174">
        <ele>15</ele>
        <time>2011-04-04T07:14:32Z</time>
      </trkpt>
      <trkpt lat="43.20142" lon="5.45147">
        <ele>25.6</ele>
        <time>2011-04-04T07:14:32Z</time>
      </trkpt>
      <trkpt lat="43.20146" lon="5.45138">
        <ele>26</ele>
        <time>2011-04-04T07:14:32Z</time>
      </trkpt>
      <trkpt lat="43.20161" lon="5.4519">
        <ele>8</ele>
        <time>2011-04-04T07:14:32Z</time>
      </trkpt>
      <trkpt lat="43.20191" lon="5.45226">
        <ele>14</ele>
        <time>2011-04-04T07:14:32Z</time>
      </trkpt>
      <trkpt lat="43.20198" lon="5.45248">
        <ele>15</ele>
        <time>2011-04-04T07:14:32Z</time>
      </trkpt>
      <trkpt lat="43.20234" lon="5.45258">
        <ele>21</ele>
        <time>2011-04-04T07:14:32Z</time>
      </trkpt>
      <trkpt lat="43.20257" lon="5.45304">
        <ele>32</ele>
        <time>2011-04-04T07:14:32Z</time>
      </trkpt>
      <trkpt lat="43.20265" lon="5.45361">
        <ele>28</ele>
        <time>2011-04-04T07:14:32Z</time>
      </trkpt>
      <trkpt lat="43.2028" lon="5.45416">
        <ele>26</ele>
        <time>2011-04-04T07:14:32Z</time>
      </trkpt>
      <trkpt lat="43.20292" lon="5.45466">
        <ele>21</ele>
        <time>2011-04-04T07:14:32Z</time>
      </trkpt>
      <trkpt lat="43.20283" lon="5.45465">
        <ele>20</ele>
        <time>2011-04-04T07:14:32Z</time>
      </trkpt>
      <trkpt lat="43.20288" lon="5.45455">
        <ele>21</ele>
        <time>2011-04-04T07:14:32Z</time>
      </trkpt>
      <trkpt lat="43.20283" lon="5.45456">
        <ele>21</ele>
        <time>2011-04-04T07:14:32Z</time>
      </trkpt>
      <trkpt lat="43.20298" lon="5.45441">
        <ele>22</ele>
        <time>2011-04-04T07:14:32Z</time>
      </trkpt>
      <trkpt lat="43.20326" lon="5.45397">
        <ele>32</ele>
        <time>2011-04-04T07:14:32Z</time>
      </trkpt>
      <trkpt lat="43.20316" lon="5.45335">
        <ele>36</ele>
        <time>2011-04-04T07:14:32Z</time>
      </trkpt>
      <trkpt lat="43.20313" lon="5.45278">
        <ele>38</ele>
        <time>2011-04-04T07:14:32Z</time>
      </trkpt>
      <trkpt lat="43.20325" lon="5.45215">
        <ele>37</ele>
        <time>2011-04-04T07:14:32Z</time>
      </trkpt>
      <trkpt lat="43.20352" lon="5.45167">
        <ele>45</ele>
        <time>2011-04-04T07:14:32Z</time>
      </trkpt>
      <trkpt lat="43.20382" lon="5.45121">
        <ele>48</ele>
        <time>2011-04-04T07:14:32Z</time>
      </trkpt>
      <trkpt lat="43.20407" lon="5.45067">
        <ele>49</ele>
        <time>2011-04-04T07:14:32Z</time>
      </trkpt>
      <trkpt lat="43.20436" lon="5.45012">
        <ele>59</ele>
        <time>2011-04-04T07:14:32Z</time>
      </trkpt>
      <trkpt lat="43.20464" lon="5.4497">
        <ele>69</ele>
        <time>2011-04-04T07:14:32Z</time>
      </trkpt>
      <trkpt lat="43.20472" lon="5.449">
        <ele>75</ele>
        <time>2011-04-04T07:14:32Z</time>
      </trkpt>
      <trkpt lat="43.20473" lon="5.44841">
        <ele>76</ele>
        <time>2011-04-04T07:14:32Z</time>
      </trkpt>
      <trkpt lat="43.20504" lon="5.44804">
        <ele>74</ele>
        <time>2011-04-04T07:14:32Z</time>
      </trkpt>
      <trkpt lat="43.20546" lon="5.44795">
        <ele>72</ele>
        <time>2011-04-04T07:14:32Z</time>
      </trkpt>
      <trkpt lat="43.2059" lon="5.44778">
        <ele>60</ele>
        <time>2011-04-04T07:14:32Z</time>
      </trkpt>
      <trkpt lat="43.20624" lon="5.44754">
        <ele>55</ele>
        <time>2011-04-04T07:14:32Z</time>
      </trkpt>
      <trkpt lat="43.20645" lon="5.44697">
        <ele>60</ele>
        <time>2011-04-04T07:14:32Z</time>
      </trkpt>
      <trkpt lat="43.20642" lon="5.44638">
        <ele>68</ele>
        <time>2011-04-04T07:14:32Z</time>
      </trkpt>
      <trkpt lat="43.20659" lon="5.44598">
        <ele>77</ele>
        <time>2011-04-04T07:14:32Z</time>
      </trkpt>
      <trkpt lat="43.20688" lon="5.44623">
        <ele>63</ele>
        <time>2011-04-04T07:14:32Z</time>
      </trkpt>
      <trkpt lat="43.20728" lon="5.44615">
        <ele>54</ele>
        <time>2011-04-04T07:14:32Z</time>
      </trkpt>
      <trkpt lat="43.20768" lon="5.44598">
        <ele>39</ele>
        <time>2011-04-04T07:14:32Z</time>
      </trkpt>
      <trkpt lat="43.20807" lon="5.44616">
        <ele>35</ele>
        <time>2011-04-04T07:14:32Z</time>
      </trkpt>
      <trkpt lat="43.20851" lon="5.44638">
        <ele>29</ele>
        <time>2011-04-04T07:14:32Z</time>
      </trkpt>
      <trkpt lat="43.20889" lon="5.44621">
        <ele>32</ele>
        <time>2011-04-04T07:14:32Z</time>
      </trkpt>
      <trkpt lat="43.20928" lon="5.44633">
        <ele>25</ele>
        <time>2011-04-04T07:14:32Z</time>
      </trkpt>
      <trkpt lat="43.20969" lon="5.44609">
        <ele>26</ele>
        <time>2011-04-04T07:14:32Z</time>
      </trkpt>
      <trkpt lat="43.21005" lon="5.44581">
        <ele>29</ele>
        <time>2011-04-04T07:14:32Z</time>
      </trkpt>
      <trkpt lat="43.21049" lon="5.44563">
        <ele>33</ele>
        <time>2011-04-04T07:14:32Z</time>
      </trkpt>
      <trkpt lat="43.21082" lon="5.44528">
        <ele>36</ele>
        <time>2011-04-04T07:14:32Z</time>
      </trkpt>
      <trkpt lat="43.21113" lon="5.44486">
        <ele>33</ele>
        <time>2011-04-04T07:14:32Z</time>
      </trkpt>
      <trkpt lat="43.21128" lon="5.44438">
        <ele>36</ele>
        <time>2011-04-04T07:14:32Z</time>
      </trkpt>
      <trkpt lat="43.2115" lon="5.44411">
        <ele>41</ele>
        <time>2011-04-04T07:14:32Z</time>
      </trkpt>
      <trkpt lat="43.21186" lon="5.44429">
        <ele>17</ele>
        <time>2011-04-04T07:14:32Z</time>
      </trkpt>
      <trkpt lat="43.21217" lon="5.44406">
        <ele>18</ele>
        <time>2011-04-04T07:14:32Z</time>
      </trkpt>
      <trkpt lat="43.21244" lon="5.44367">
        <ele>17</ele>
        <time>2011-04-04T07:14:32Z</time>
      </trkpt>
      <trkpt lat="43.21274" lon="5.44322">
        <ele>14</ele>
        <time>2011-04-04T07:14:32Z</time>
      </trkpt>
      <trkpt lat="43.21308" lon="5.44352">
        <ele>17</ele>
        <time>2011-04-04T07:14:32Z</time>
      </trkpt>
      <trkpt lat="43.2129" lon="5.44414">
        <ele>16</ele>
        <time>2011-04-04T07:14:32Z</time>
      </trkpt>
      <trkpt lat="43.21275" lon="5.44474">
        <ele>21</ele>
        <time>2011-04-04T07:14:32Z</time>
      </trkpt>
      <trkpt lat="43.21285" lon="5.44515">
        <ele>37</ele>
        <time>2011-04-04T07:14:32Z</time>
      </trkpt>
      <trkpt lat="43.21296" lon="5.4456">
        <ele>47</ele>
        <time>2011-04-04T07:14:32Z</time>
      </trkpt>
      <trkpt lat="43.21272" lon="5.44593">
        <ele>57</ele>
        <time>2011-04-04T07:14:32Z</time>
      </trkpt>
      <trkpt lat="43.21248" lon="5.44629">
        <ele>38</ele>
        <time>2011-04-04T07:14:32Z</time>
      </trkpt>
      <trkpt lat="43.21224" lon="5.44666">
        <ele>44</ele>
        <time>2011-04-04T07:14:32Z</time>
      </trkpt>
      <trkpt lat="43.21205" lon="5.44719">
        <ele>60</ele>
        <time>2011-04-04T07:14:32Z</time>
      </trkpt>
      <trkpt lat="43.21175" lon="5.44757">
        <ele>60</ele>
        <time>2011-04-04T07:14:32Z</time>
      </trkpt>
      <trkpt lat="43.21139" lon="5.44784">
        <ele>42</ele>
        <time>2011-04-04T07:14:32Z</time>
      </trkpt>
      <trkpt lat="43.21109" lon="5.44826">
        <ele>38</ele>
        <time>2011-04-04T07:14:32Z</time>
      </trkpt>
      <trkpt lat="43.21097" lon="5.44871">
        <ele>47</ele>
        <time>2011-04-04T07:14:32Z</time>
      </trkpt>
      <trkpt lat="43.21096" lon="5.44919">
        <ele>45</ele>
        <time>2011-04-04T07:14:32Z</time>
      </trkpt>
      <trkpt lat="43.21105" lon="5.44967">
        <ele>52</ele>
        <time>2011-04-04T07:14:32Z</time>
      </trkpt>
      <trkpt lat="43.2112" lon="5.45016">
        <ele>58</ele>
        <time>2011-04-04T07:14:32Z</time>
      </trkpt>
      <trkpt lat="43.21113" lon="5.45065">
        <ele>58</ele>
        <time>2011-04-04T07:14:32Z</time>
      </trkpt>
      <trkpt lat="43.21082" lon="5.45102">
        <ele>37</ele>
        <time>2011-04-04T07:14:32Z</time>
      </trkpt>
      <trkpt lat="43.21065" lon="5.4516">
        <ele>42</ele>
        <time>2011-04-04T07:14:32Z</time>
      </trkpt>
      <trkpt lat="43.21035" lon="5.452">
        <ele>39</ele>
        <time>2011-04-04T07:14:32Z</time>
      </trkpt>
      <trkpt lat="43.21022" lon="5.45254">
        <ele>38</ele>
        <time>2011-04-04T07:14:32Z</time>
      </trkpt>
      <trkpt lat="43.21017" lon="5.45309">
        <ele>40</ele>
        <time>2011-04-04T07:14:32Z</time>
      </trkpt>
      <trkpt lat="43.21019" lon="5.45345">
        <ele>34</ele>
        <time>2011-04-04T07:14:32Z</time>
      </trkpt>
      <trkpt lat="43.21057" lon="5.45353">
        <ele>41</ele>
        <time>2011-04-04T07:14:32Z</time>
      </trkpt>
      <trkpt lat="43.21101" lon="5.45359">
        <ele>52</ele>
        <time>2011-04-04T07:14:32Z</time>
      </trkpt>
      <trkpt lat="43.2114" lon="5.45369">
        <ele>52</ele>
        <time>2011-04-04T07:14:32Z</time>
      </trkpt>
      <trkpt lat="43.21162" lon="5.45376">
        <ele>50</ele>
        <time>2011-04-04T07:14:32Z</time>
      </trkpt>
      <trkpt lat="43.21186" lon="5.45364">
        <ele>63</ele>
        <time>2011-04-04T07:14:32Z</time>
      </trkpt>
      <trkpt lat="43.21216" lon="5.45353">
        <ele>65</ele>
        <time>2011-04-04T07:14:32Z</time>
      </trkpt>
      <trkpt lat="43.21203" lon="5.45408">
        <ele>55</ele>
        <time>2011-04-04T07:14:32Z</time>
      </trkpt>
      <trkpt lat="43.21213" lon="5.454">
        <ele>59</ele>
        <time>2011-04-04T07:14:32Z</time>
      </trkpt>
      <trkpt lat="43.21212" lon="5.45404">
        <ele>58</ele>
        <time>2011-04-04T07:14:32Z</time>
      </trkpt>
      <trkpt lat="43.21208" lon="5.45416">
        <ele>56</ele>
        <time>2011-04-04T07:14:32Z</time>
      </trkpt>
      <trkpt lat="43.21209" lon="5.45411">
        <ele>57</ele>
        <time>2011-04-04T07:14:32Z</time>
      </trkpt>
      <trkpt lat="43.21203" lon="5.45399">
        <ele>56</ele>
        <time>2011-04-04T07:14:32Z</time>
      </trkpt>
      <trkpt lat="43.21204" lon="5.45423">
        <ele>39</ele>
        <time>2011-04-04T07:14:32Z</time>
      </trkpt>
      <trkpt lat="43.21204" lon="5.45406">
        <ele>56</ele>
        <time>2011-04-04T07:14:32Z</time>
      </trkpt>
      <trkpt lat="43.21201" lon="5.45402">
        <ele>55</ele>
        <time>2011-04-04T07:14:32Z</time>
      </trkpt>
      <trkpt lat="43.21223" lon="5.45391">
        <ele>61</ele>
        <time>2011-04-04T07:14:32Z</time>
      </trkpt>
      <trkpt lat="43.21245" lon="5.45439">
        <ele>49</ele>
        <time>2011-04-04T07:14:32Z</time>
      </trkpt>
      <trkpt lat="43.21275" lon="5.45432">
        <ele>81</ele>
        <time>2011-04-04T07:14:32Z</time>
      </trkpt>
      <trkpt lat="43.21295" lon="5.45392">
        <ele>92</ele>
        <time>2011-04-04T07:14:32Z</time>
      </trkpt>
      <trkpt lat="43.21318" lon="5.45341">
        <ele>98</ele>
        <time>2011-04-04T07:14:32Z</time>
      </trkpt>
      <trkpt lat="43.21333" lon="5.45283">
        <ele>98</ele>
        <time>2011-04-04T07:14:32Z</time>
      </trkpt>
      <trkpt lat="43.21332" lon="5.45239">
        <ele>103</ele>
        <time>2011-04-04T07:14:32Z</time>
      </trkpt>
      <trkpt lat="43.21322" lon="5.45208">
        <ele>103</ele>
        <time>2011-04-04T07:14:32Z</time>
      </trkpt>
      <trkpt lat="43.2133" lon="5.45154">
        <ele>112</ele>
        <time>2011-04-04T07:14:32Z</time>
      </trkpt>
      <trkpt lat="43.2132" lon="5.45099">
        <ele>114</ele>
        <time>2011-04-04T07:14:32Z</time>
      </trkpt>
      <trkpt lat="43.21359" lon="5.45082">
        <ele>132</ele>
        <time>2011-04-04T07:14:32Z</time>
      </trkpt>
      <trkpt lat="43.21389" lon="5.45031">
        <ele>138</ele>
        <time>2011-04-04T07:14:32Z</time>
      </trkpt>
      <trkpt lat="43.21391" lon="5.44971">
        <ele>146</ele>
        <time>2011-04-04T07:14:32Z</time>
      </trkpt>
      <trkpt lat="43.2143" lon="5.44965">
        <ele>149</ele>
        <time>2011-04-04T07:14:32Z</time>
      </trkpt>
      <trkpt lat="43.21468" lon="5.44932">
        <ele>151</ele>
        <time>2011-04-04T07:14:32Z</time>
      </trkpt>
      <trkpt lat="43.21514" lon="5.44938">
        <ele>158</ele>
        <time>2011-04-04T07:14:32Z</time>
      </trkpt>
      <trkpt lat="43.21544" lon="5.44898">
        <ele>162</ele>
        <time>2011-04-04T07:14:32Z</time>
      </trkpt>
      <trkpt lat="43.21576" lon="5.44858">
        <ele>163</ele>
        <time>2011-04-04T07:14:32Z</time>
      </trkpt>
      <trkpt lat="43.21568" lon="5.44805">
        <ele>171</ele>
        <time>2011-04-04T07:14:32Z</time>
      </trkpt>
      <trkpt lat="43.21597" lon="5.44758">
        <ele>173</ele>
        <time>2011-04-04T07:14:32Z</time>
      </trkpt>
      <trkpt lat="43.21636" lon="5.44756">
        <ele>175</ele>
        <time>2011-04-04T07:14:32Z</time>
      </trkpt>
      <trkpt lat="43.21679" lon="5.44779">
        <ele>184</ele>
        <time>2011-04-04T07:14:32Z</time>
      </trkpt>
      <trkpt lat="43.21723" lon="5.44774">
        <ele>188</ele>
        <time>2011-04-04T07:14:32Z</time>
      </trkpt>
      <trkpt lat="43.21753" lon="5.44765">
        <ele>196</ele>
        <time>2011-04-04T07:14:32Z</time>
      </trkpt>
      <trkpt lat="43.21727" lon="5.44747">
        <ele>194</ele>
        <time>2011-04-04T07:14:32Z</time>
      </trkpt>
      <trkpt lat="43.21772" lon="5.44751">
        <ele>198</ele>
        <time>2011-04-04T07:14:32Z</time>
      </trkpt>
      <trkpt lat="43.21791" lon="5.44728">
        <ele>207</ele>
        <time>2011-04-04T07:14:32Z</time>
      </trkpt>
      <trkpt lat="43.21823" lon="5.44704">
        <ele>211</ele>
        <time>2011-04-04T07:14:32Z</time>
      </trkpt>
      <trkpt lat="43.21862" lon="5.44694">
        <ele>216</ele>
        <time>2011-04-04T07:14:32Z</time>
      </trkpt>
      <trkpt lat="43.21884" lon="5.44648">
        <ele>215</ele>
        <time>2011-04-04T07:14:32Z</time>
      </trkpt>
      <trkpt lat="43.21907" lon="5.44598">
        <ele>213</ele>
        <time>2011-04-04T07:14:32Z</time>
      </trkpt>
      <trkpt lat="43.21928" lon="5.44544">
        <ele>211</ele>
        <time>2011-04-04T07:14:32Z</time>
      </trkpt>
      <trkpt lat="43.2192" lon="5.44483">
        <ele>206</ele>
        <time>2011-04-04T07:14:32Z</time>
      </trkpt>
      <trkpt lat="43.21938" lon="5.44424">
        <ele>206</ele>
        <time>2011-04-04T07:14:32Z</time>
      </trkpt>
      <trkpt lat="43.21966" lon="5.44378">
        <ele>201</ele>
        <time>2011-04-04T07:14:32Z</time>
      </trkpt>
      <trkpt lat="43.2199" lon="5.44329">
        <ele>194</ele>
        <time>2011-04-04T07:14:32Z</time>
      </trkpt>
      <trkpt lat="43.22019" lon="5.44277">
        <ele>195</ele>
        <time>2011-04-04T07:14:32Z</time>
      </trkpt>
      <trkpt lat="43.2204" lon="5.44223">
        <ele>189</ele>
        <time>2011-04-04T07:14:32Z</time>
      </trkpt>
      <trkpt lat="43.22055" lon="5.44165">
        <ele>183</ele>
        <time>2011-04-04T07:14:32Z</time>
      </trkpt>
      <trkpt lat="43.22076" lon="5.44112">
        <ele>182</ele>
        <time>2011-04-04T07:14:32Z</time>
      </trkpt>
      <trkpt lat="43.2211" lon="5.4407">
        <ele>182</ele>
        <time>2011-04-04T07:14:32Z</time>
      </trkpt>
      <trkpt lat="43.22147" lon="5.44037">
        <ele>182</ele>
        <time>2011-04-04T07:14:32Z</time>
      </trkpt>
      <trkpt lat="43.22188" lon="5.44014">
        <ele>181</ele>
        <time>2011-04-04T07:14:32Z</time>
      </trkpt>
      <trkpt lat="43.22233" lon="5.43996">
        <ele>180</ele>
        <time>2011-04-04T07:14:32Z</time>
      </trkpt>
      <trkpt lat="43.22275" lon="5.43975">
        <ele>179</ele>
        <time>2011-04-04T07:14:32Z</time>
      </trkpt>
      <trkpt lat="43.22313" lon="5.4394">
        <ele>178</ele>
        <time>2011-04-04T07:14:32Z</time>
      </trkpt>
      <trkpt lat="43.22345" lon="5.43899">
        <ele>174</ele>
        <time>2011-04-04T07:14:32Z</time>
      </trkpt>
      <trkpt lat="43.22385" lon="5.43864">
        <ele>172</ele>
        <time>2011-04-04T07:14:32Z</time>
      </trkpt>
      <trkpt lat="43.22425" lon="5.43842">
        <ele>169</ele>
        <time>2011-04-04T07:14:32Z</time>
      </trkpt>
      <trkpt lat="43.22462" lon="5.43815">
        <ele>171</ele>
        <time>2011-04-04T07:14:32Z</time>
      </trkpt>
      <trkpt lat="43.22509" lon="5.43816">
        <ele>171</ele>
        <time>2011-04-04T07:14:32Z</time>
      </trkpt>
      <trkpt lat="43.22553" lon="5.43811">
        <ele>171</ele>
        <time>2011-04-04T07:14:32Z</time>
      </trkpt>
      <trkpt lat="43.22599" lon="5.43807">
        <ele>168</ele>
        <time>2011-04-04T07:14:32Z</time>
      </trkpt>
      <trkpt lat="43.22643" lon="5.4379">
        <ele>168</ele>
        <time>2011-04-04T07:14:32Z</time>
      </trkpt>
      <trkpt lat="43.22686" lon="5.43757">
        <ele>166</ele>
        <time>2011-04-04T07:14:32Z</time>
      </trkpt>
      <trkpt lat="43.2273" lon="5.4373">
        <ele>166</ele>
        <time>2011-04-04T07:14:32Z</time>
      </trkpt>
      <trkpt lat="43.22776" lon="5.43722">
        <ele>164</ele>
        <time>2011-04-04T07:14:32Z</time>
      </trkpt>
      <trkpt lat="43.22823" lon="5.43724">
        <ele>163</ele>
        <time>2011-04-04T07:14:32Z</time>
      </trkpt>
      <trkpt lat="43.22867" lon="5.43719">
        <ele>160</ele>
        <time>2011-04-04T07:14:32Z</time>
      </trkpt>
      <trkpt lat="43.22913" lon="5.43715">
        <ele>158</ele>
        <time>2011-04-04T07:14:32Z</time>
      </trkpt>
      <trkpt lat="43.22933" lon="5.43712">
        <ele>153</ele>
        <time>2011-04-04T07:14:32Z</time>
      </trkpt>
      <trkpt lat="43.22935" lon="5.43711">
        <ele>153</ele>
        <time>2011-04-04T07:14:32Z</time>
      </trkpt>
      <trkpt lat="43.22938" lon="5.43711">
        <ele>153</ele>
        <time>2011-04-04T07:14:32Z</time>
      </trkpt>
      <trkpt lat="43.2294" lon="5.43711">
        <ele>153</ele>
        <time>2011-04-04T07:14:32Z</time>
      </trkpt>
      <trkpt lat="43.22942" lon="5.4371">
        <ele>153</ele>
        <time>2011-04-04T07:14:32Z</time>
      </trkpt>
      <trkpt lat="43.22944" lon="5.4371">
        <ele>152</ele>
        <time>2011-04-04T07:14:32Z</time>
      </trkpt>
      <trkpt lat="43.22946" lon="5.43709">
        <ele>152</ele>
        <time>2011-04-04T07:14:32Z</time>
      </trkpt>
      <trkpt lat="43.22948" lon="5.43709">
        <ele>152</ele>
        <time>2011-04-04T07:14:32Z</time>
      </trkpt>
      <trkpt lat="43.2295" lon="5.43709">
        <ele>152</ele>
        <time>2011-04-04T07:14:32Z</time>
      </trkpt>
      <trkpt lat="43.22952" lon="5.43709">
        <ele>152</ele>
        <time>2011-04-04T07:14:32Z</time>
      </trkpt>
      <trkpt lat="43.22954" lon="5.43708">
        <ele>152</ele>
        <time>2011-04-04T07:14:32Z</time>
      </trkpt>
      <trkpt lat="43.22956" lon="5.43708">
        <ele>152</ele>
        <time>2011-04-04T07:14:32Z</time>
      </trkpt>
      <trkpt lat="43.22958" lon="5.43707">
        <ele>152</ele>
        <time>2011-04-04T07:14:32Z</time>
      </trkpt>
      <trkpt lat="43.2296" lon="5.43707">
        <ele>152</ele>
        <time>2011-04-04T07:14:32Z</time>
      </trkpt>
      <trkpt lat="43.22962" lon="5.43706">
        <ele>152</ele>
        <time>2011-04-04T07:14:32Z</time>
      </trkpt>
      <trkpt lat="43.22964" lon="5.43704">
        <ele>152</ele>
        <time>2011-04-04T07:14:32Z</time>
      </trkpt>
      <trkpt lat="43.22965" lon="5.43702">
        <ele>151</ele>
        <time>2011-04-04T07:14:32Z</time>
      </trkpt>
      <trkpt lat="43.22967" lon="5.43701">
        <ele>151</ele>
        <time>2011-04-04T07:14:32Z</time>
      </trkpt>
      <trkpt lat="43.22969" lon="5.43701">
        <ele>151</ele>
        <time>2011-04-04T07:14:32Z</time>
      </trkpt>
      <trkpt lat="43.22971" lon="5.43701">
        <ele>151</ele>
        <time>2011-04-04T07:14:32Z</time>
      </trkpt>
      <trkpt lat="43.22973" lon="5.43699">
        <ele>151</ele>
        <time>2011-04-04T07:14:32Z</time>
      </trkpt>
      <trkpt lat="43.22975" lon="5.43698">
        <ele>151</ele>
        <time>2011-04-04T07:14:32Z</time>
      </trkpt>
      <trkpt lat="43.22974" lon="5.43699">
        <ele>151</ele>
        <time>2011-04-04T07:14:32Z</time>
      </trkpt>
    </trkseg>
  </trk>
</gpx>